Cheboygan, MI

3:58 AM EDT on July 24, 2017 (GMT -0400)
Cheboygan

Weather History for KSLH - April, 2013

Change the Weather History Date:

Wednesday, April 17, 2013

  Actual Average (KMCD) Record (KMCD)
Temperature  
Mean Temperature 34 °F -  
Max Temperature 43 °F 46 °F 71 °F (2002)
Min Temperature 26 °F 30 °F 21 °F (1983)
Degree Days  
Heating Degree Days 30    
Moisture  
Dew Point 29 °F    
Average Humidity 76    
Maximum Humidity 94    
Minimum Humidity 54    
Precipitation  
Precipitation 0.00 in - - ()
Sea Level Pressure  
Sea Level Pressure 30.32 in    
Wind  
Wind Speed 6 mph (ENE)    
Max Wind Speed 20 mph    
Max Gust Speed 23 mph    
Visibility 10 miles    
Events Rain    
Averages and records for this station are not official NWS values.
T = Trace of Precipitation, MM = Missing Value Source: NWS Daily Summary

Daily Weather History Graph

Daily Weather History Graph

Search for Another Location

Airport or City:

Trip Planner

Search our weather history database for the weather conditions in past years. The results will help you decide how hot, cold, wet, or windy it might be!

Date:

Astronomy

Apr. 17, 2013 Rise Set
Actual Time 6:48 AM EDT 8:27 PM EDT
Civil Twilight 6:17 AM EDT 8:58 PM EDT
Nautical Twilight 5:39 AM EDT 9:37 PM EDT
Astronomical Twilight 4:58 AM EDT 10:18 PM EDT
Moon 11:55 AM EDT (4/17) 2:11 AM EDT (4/17)
Length of Visible Light 14h 41m
Length of Day
13h 39m
Waxing Crescent, 42% of the Moon is Illuminated
Apr 17
Waxing Crescent
Apr 18
First Quarter
Apr 25
Full
May 2
Last Quarter
May 9
New

Hourly Weather History & Observations

Time (EDT) Temp. Windchill Dew Point Humidity Pressure Visibility Wind Dir Wind Speed Gust Speed Precip Events Conditions
12:15 AM 32.4 °F - 27.3 °F 82% 30.32 in 10.0 mi Calm Calm - N/A   Clear
12:35 AM 32.0 °F 28.7 °F 27.1 °F 82% 30.32 in 10.0 mi West 3.5 mph - N/A   Clear
12:55 AM 31.8 °F 28.5 °F 27.0 °F 82% 30.33 in 10.0 mi WSW 3.5 mph - N/A   Clear
1:15 AM 31.8 °F 27.3 °F 27.0 °F 82% 30.33 in 10.0 mi West 4.6 mph - N/A   Clear
1:34 AM 31.5 °F 28.1 °F 27.0 °F 83% 30.33 in 10.0 mi West 3.5 mph - N/A   Clear
1:55 AM 30.6 °F 27.1 °F 26.4 °F 85% 30.34 in 10.0 mi West 3.5 mph - N/A   Clear
2:15 AM 30.6 °F 27.1 °F 27.0 °F 86% 30.35 in 10.0 mi West 3.5 mph - N/A   Clear
2:35 AM 30.4 °F 25.6 °F 26.8 °F 86% 30.35 in 10.0 mi West 4.6 mph - N/A   Clear
2:55 AM 30.4 °F 24.5 °F 27.3 °F 88% 30.35 in 10.0 mi West 5.8 mph - N/A   Clear
3:15 AM 30.2 °F 26.7 °F 27.3 °F 89% 30.36 in 10.0 mi West 3.5 mph - N/A   Clear
3:35 AM 30.2 °F 26.7 °F 27.3 °F 89% 30.37 in 10.0 mi WNW 3.5 mph - N/A   Clear
3:55 AM 29.8 °F - 27.1 °F 90% 30.37 in 10.0 mi Calm Calm - N/A   Clear
4:15 AM 30.2 °F 26.7 °F 27.9 °F 91% 30.37 in 10.0 mi WSW 3.5 mph - N/A   Clear
4:35 AM 29.5 °F 25.9 °F 27.3 °F 92% 30.38 in 10.0 mi West 3.5 mph - N/A   Clear
4:55 AM 29.7 °F - 27.7 °F 92% 30.38 in 10.0 mi Calm Calm - N/A   Clear
5:15 AM 28.0 °F - 25.9 °F 92% 30.38 in 10.0 mi Calm Calm - N/A   Clear
5:35 AM 29.1 °F - 27.1 °F 92% 30.38 in 10.0 mi Calm Calm - N/A   Clear
5:55 AM 28.4 °F - 26.4 °F 92% 30.39 in 10.0 mi Calm Calm - N/A   Clear
6:15 AM 28.4 °F - 26.4 °F 92% 30.39 in 10.0 mi Calm Calm - N/A   Clear
6:35 AM 28.9 °F - 27.1 °F 93% 30.40 in 10.0 mi Calm Calm - N/A   Clear
6:55 AM 26.4 °F - 24.3 °F 92% 30.40 in 10.0 mi Calm Calm - N/A   Clear
7:15 AM 28.4 °F - 26.6 °F 93% 30.40 in 10.0 mi Calm Calm - N/A   Clear
7:35 AM 30.0 °F - 28.2 °F 93% 30.40 in 10.0 mi Calm Calm - N/A   Clear
7:55 AM 32.0 °F - 30.0 °F 92% 30.41 in 10.0 mi Calm Calm - N/A   Clear
8:15 AM 33.3 °F 28.9 °F 31.6 °F 94% 30.41 in 10.0 mi NE 4.6 mph - N/A   Clear
8:35 AM 34.7 °F 28.1 °F 32.0 °F 90% 30.41 in 10.0 mi ENE 8.1 mph - N/A   Clear
8:55 AM 35.8 °F 27.8 °F 32.0 °F 86% 30.41 in 10.0 mi ENE 11.5 mph - N/A   Clear
9:15 AM 36.7 °F 28.9 °F 31.6 °F 82% 30.40 in 10.0 mi ENE 11.5 mph - N/A   Clear
9:35 AM 37.4 °F 29.3 °F 31.6 °F 80% 30.41 in 10.0 mi ENE 12.7 mph - N/A   Clear
10:15 AM 37.9 °F 29.2 °F 32.0 °F 79% 30.41 in 10.0 mi ENE 15.0 mph - N/A   Clear
10:35 AM 38.7 °F 30.5 °F 32.0 °F 77% 30.41 in 10.0 mi ENE 13.8 mph - N/A   Clear
10:55 AM 39.4 °F 31.1 °F 32.5 °F 76% 30.42 in 10.0 mi ENE 15.0 mph - N/A   Clear
11:15 AM 39.4 °F 31.8 °F 32.4 °F 76% 30.42 in 10.0 mi NE 12.7 mph - N/A   Clear
11:34 AM 39.6 °F 31.0 °F 32.4 °F 75% 30.42 in 10.0 mi ENE 16.1 mph 19.6 mph N/A   Clear
11:55 AM 39.2 °F 31.6 °F 32.2 °F 76% 30.41 in 10.0 mi ENE 12.7 mph 20.7 mph N/A   Clear
12:15 PM 39.0 °F 30.3 °F 32.0 °F 76% 30.41 in 10.0 mi ENE 16.1 mph - N/A   Clear
12:35 PM 39.0 °F 29.3 °F 32.0 °F 76% 30.38 in 10.0 mi ENE 19.6 mph 23.0 mph N/A   Clear
12:55 PM 40.3 °F 31.6 °F 32.5 °F 74% 30.38 in 10.0 mi ENE 17.3 mph 21.9 mph N/A   Clear
1:15 PM 40.1 °F 31.6 °F 32.2 °F 73% 30.38 in 10.0 mi ENE 16.1 mph - N/A   Clear
1:35 PM 39.9 °F 31.8 °F 32.7 °F 75% 30.35 in 10.0 mi ENE 15.0 mph 20.7 mph N/A   Clear
1:55 PM 41.2 °F 33.7 °F 33.1 °F 73% 30.36 in 10.0 mi ENE 13.8 mph 18.4 mph N/A   Clear
2:15 PM 43.7 °F 37.3 °F 34.0 °F 69% 30.35 in 10.0 mi ENE 12.7 mph - N/A   Clear
2:35 PM 42.8 °F 35.8 °F 33.3 °F 69% 30.35 in 10.0 mi NE 13.8 mph - N/A   Clear
2:55 PM 42.3 °F 35.1 °F 33.3 °F 70% 30.33 in 10.0 mi ENE 13.8 mph - N/A   Clear
3:15 PM 42.8 °F 35.4 °F 33.3 °F 69% 30.32 in 10.0 mi ENE 15.0 mph - N/A   Clear
3:35 PM 42.8 °F 35.4 °F 32.9 °F 68% 30.30 in 10.0 mi ENE 15.0 mph - N/A   Clear
3:55 PM 43.5 °F 36.7 °F 29.8 °F 59% 30.30 in 10.0 mi East 13.8 mph 19.6 mph N/A   Scattered Clouds
4:34 PM 43.0 °F 36.8 °F 27.3 °F 54% 30.30 in 10.0 mi East 11.5 mph 17.3 mph N/A   Overcast
4:55 PM 42.1 °F 34.9 °F 27.1 °F 55% 30.30 in 10.0 mi East 13.8 mph 18.4 mph N/A   Overcast
5:15 PM 41.9 °F 35.0 °F 27.1 °F 56% 30.31 in 10.0 mi East 12.7 mph 17.3 mph N/A   Overcast
5:35 PM 41.5 °F 35.9 °F 28.2 °F 59% 30.31 in 10.0 mi East 9.2 mph - N/A   Overcast
5:55 PM 41.2 °F 35.0 °F 27.5 °F 58% 30.28 in 10.0 mi East 10.4 mph - N/A   Scattered Clouds
6:15 PM 41.0 °F 34.3 °F 27.1 °F 58% 30.26 in 10.0 mi East 11.5 mph 18.4 mph N/A   Mostly Cloudy
6:35 PM 41.0 °F 34.3 °F 27.0 °F 57% 30.26 in 10.0 mi East 11.5 mph - N/A   Overcast
6:55 PM 40.8 °F 35.6 °F 27.7 °F 60% 30.24 in 10.0 mi East 8.1 mph - N/A   Overcast
7:15 PM 40.3 °F 34.4 °F 28.2 °F 62% 30.23 in 10.0 mi East 9.2 mph - N/A   Overcast
7:35 PM 40.1 °F 33.6 °F 28.6 °F 63% 30.22 in 10.0 mi ESE 10.4 mph - N/A   Overcast
7:55 PM 39.6 °F 32.5 °F 28.4 °F 64% 30.21 in 10.0 mi East 11.5 mph 17.3 mph N/A   Overcast
8:15 PM 39.6 °F 31.3 °F 28.0 °F 63% 30.21 in 10.0 mi ESE 15.0 mph 21.9 mph N/A   Overcast
8:35 PM 39.4 °F 31.8 °F 29.1 °F 67% 30.20 in 10.0 mi East 12.7 mph 18.4 mph N/A   Overcast
8:55 PM 39.4 °F 34.5 °F 29.1 °F 67% 30.20 in 10.0 mi East 6.9 mph - N/A   Overcast
9:15 PM 39.2 °F 33.0 °F 29.7 °F 69% 30.18 in 10.0 mi ESE 9.2 mph - N/A   Overcast
9:35 PM 39.4 °F 34.5 °F 29.1 °F 67% 30.17 in 10.0 mi ESE 6.9 mph - N/A   Overcast
9:55 PM 40.1 °F 33.2 °F 28.2 °F 63% 30.15 in 10.0 mi ESE 11.5 mph - N/A   Overcast
10:15 PM 40.6 °F 33.8 °F 28.0 °F 61% 30.15 in 10.0 mi ESE 11.5 mph - N/A   Overcast
10:55 PM 40.3 °F 34.9 °F 30.4 °F 68% 30.16 in 7.0 mi ESE 8.1 mph - N/A Rain Light Rain
11:15 PM 38.8 °F 34.6 °F 32.0 °F 76% 30.16 in 10.0 mi East 5.8 mph - N/A Rain Light Rain
11:35 PM 38.3 °F 33.2 °F 32.2 °F 79% 30.15 in 7.0 mi East 6.9 mph - N/A Rain Light Rain
11:55 PM 37.9 °F 30.9 °F 32.2 °F 80% 30.13 in 10.0 mi East 10.4 mph - N/A   Overcast